(5862) Sakanoue = 1991 LD3 = 1983 AB

Discovered at Geisei on 1983-01-13 by T. Seki.
(5862) Sakanoue = 1983 AB

Named in honor of Tsutomu Sakanoue (b. 1921), professor emeritus of Kyushu University whose specialties included agricultural meteorology, countermeasures against meteorological disasters, medical meteorology and rainmaking. An amateur astronomer with particular interests in atmospheric seeing, the green flash and shadow bands, he contributed to the popularization of astronomy as an advisor at several science museums. He also served as vice president and president of the Oriental Astronomical Association. Name proposed by the discoverer following a suggestion by S. Murayama, T. Sato and A. Fujii. [Ref: Minor Planet Circ. 32788]

Orbit

Orbit type: Main Belt

Note: WebGL enabled browser required.

epoch2024-03-31.0
epoch JD2460400.5
perihelion date2023-10-09.88774
perihelion JD2460227.38774
argument of perihelion (°)65.07420
ascending node (°)89.74748
inclination (°)3.39224
eccentricity0.1494664
perihelion distance (AU)2.0297165
Tisserand w.r.t. Jupiter3.5
ΔV w.r.t. Earth (km/sec)8.9
semimajor axis (AU)2.3864036
mean anomaly (°)46.28242
mean daily motion (°/day)0.26735500
aphelion distance (AU)2.743
period (years)3.69
P-vector [x]-0.90339913
P-vector [y]0.36897976
P-vector [z]0.21845810
Q-vector [x]-0.42469853
Q-vector [y]-0.84023282
Q-vector [z]-0.33710528
absolute magnitude14.21
phase slope0.15
uncertainty0
referenceE2024-GI3
observations used4204
oppositions24
arc length (days)15061
first opposition used1983
last opposition used2024
residual rms (arc-secs)0.52
perturbers coarse indicatorM-v
perturbers precise indicator003Ek
first observation date used1983-01-13.0
last observation date used2024-04-08.0
computer nameMPCLINUX
JD of orbit computation2456966.790137
perihelion JD uncertainty (days)5.2270E-05
argument of perihelion uncertainty (°)6.0150E-05
ascending node uncertainty (°)5.8864E-05
inclination uncertainty (°)3.0268E-06
eccentricity uncertainty 2.8975E-08
perihelion distance uncertainty (AU)6.7930E-08
Minimum Orbit Intersection Distances (in AU)
for orbit epoch: 2460400.5, reference: E2024-GI3
Mercury1.6585
Venus1.3109
Earth1.04299
Mars0.36637
Jupiter2.24693
Saturn6.70229
Uranus16.4047
Neptune27.1859

Observations

4234 total observations over interval: 1983 01 13.75660 – 2024 03 20.057562
These data are available for download (format description).

Date (UT) J2000 RA J2000 Dec Magn Location Ref
1983 01 13.75660 09 40 59.58 +17 54 45.2 17   372 – Geisei MPC 7637
1983 01 14.77257 09 40 29.12 +18 00 26.5 17   372 – Geisei MPC 7637
1983 01 16.75608 09 39 23.79 +18 11 54.5 17   372 – Geisei MPC 7637
1983 01 18.75694 09 38 10.52 +18 23 55.2 17   372 – Geisei MPC 7637
1983 01 20.79080 09 36 48.80 +18 36 35.4 17   372 – Geisei MPC 7637
1983 01 23.70903 09 34 39.88 +18 55 17.6 17   372 – Geisei MPC 7637
1983 02 07.52986 09 21 19.93 +20 32 12.2 16.5   372 – Geisei MPC 7736
1983 02 07.54271 09 21 19.18 +20 32 17.7   372 – Geisei MPC 7736
1983 02 15.26319 09 13 54.22 +21 16 27.9 16.5   688 – Lowell Observatory, Anderson Mesa Station MPC 7754
1983 02 15.29375 09 13 52.30 +21 16 37.5   688 – Lowell Observatory, Anderson Mesa Station MPC 7754
1983 02 15.71372 09 13 28.41 +21 18 47.8 16.5   372 – Geisei MPC 7736
1983 02 15.72257 09 13 28.06 +21 18 52.6   372 – Geisei MPC 7736
1983 02 19.25139 09 10 18.76 +21 35 45.8 16.8   688 – Lowell Observatory, Anderson Mesa Station MPC 7754
1983 02 19.29722 09 10 16.26 +21 35 58.9   688 – Lowell Observatory, Anderson Mesa Station MPC 7754
1983 03 08.68229 08 59 11.65 +22 24 05.3 17   372 – Geisei MPC 7810
1983 03 08.69340 08 59 11.39 +22 24 06.7   372 – Geisei MPC 7810
1983 03 09.15208 08 59 02.33 +22 24 30.3 17.2   688 – Lowell Observatory, Anderson Mesa Station MPC 7823
1983 03 09.21528 08 59 01.06 +22 24 33.6   688 – Lowell Observatory, Anderson Mesa Station MPC 7823
1991 06 06.16528 16 39 57.33 -20 24 08.9 18.6   809 – European Southern Observatory, La Silla MPC 18587
1991 06 06.17847 16 39 56.53 -20 24 08.6   809 – European Southern Observatory, La Silla MPC 18587
1991 06 06.19167 16 39 55.60 -20 24 07.7   809 – European Southern Observatory, La Silla MPC 18587
1991 06 08.14167 16 37 53.03 -20 23 25.1   809 – European Southern Observatory, La Silla MPC 18587
1991 06 08.15486 16 37 52.21 -20 23 24.2   809 – European Southern Observatory, La Silla MPC 18587
1991 06 08.16806 16 37 51.34 -20 23 24.0   809 – European Southern Observatory, La Silla MPC 18587
1992 09 02.18403 23 59 10.25 -05 47 15.2 18.7   809 – European Southern Observatory, La Silla MPC 21064
1992 09 02.19444 23 59 09.71 -05 47 19.8   809 – European Southern Observatory, La Silla MPC 21064
1992 09 02.20486 23 59 09.20 -05 47 22.8   809 – European Southern Observatory, La Silla MPC 21064
1992 09 03.27222 23 58 18.19 -05 53 54.4   809 – European Southern Observatory, La Silla MPC 21064
1992 09 23.15694 23 40 39.61 -07 54 42.9 18.5   809 – European Southern Observatory, La Silla MPC 21742
1992 09 23.17014 23 40 38.91 -07 54 47.3   809 – European Southern Observatory, La Silla MPC 21742
1992 09 23.18333 23 40 38.14 -07 54 52.4   809 – European Southern Observatory, La Silla MPC 21742
1994 01 07.42050 08 54 59.33 +20 33 55.4 16.0 V 691 – Steward Observatory, Kitt Peak-Spacewatch MPS 80512
1994 01 07.46182 08 54 57.62 +20 34 08.9 16.5 V 691 – Steward Observatory, Kitt Peak-Spacewatch MPS 80512
1994 01 07.50268 08 54 55.80 +20 34 21.8 16.0 V 691 – Steward Observatory, Kitt Peak-Spacewatch MPS 80512
1994 01 11.37029 08 52 10.10 +20 56 31.9   691 – Steward Observatory, Kitt Peak-Spacewatch MPC 23044
1994 01 11.40641 08 52 08.40 +20 56 44.7   691 – Steward Observatory, Kitt Peak-Spacewatch MPC 23044
1994 01 11.44273 08 52 06.58 +20 56 57.1 15.9 V 691 – Steward Observatory, Kitt Peak-Spacewatch MPC 23044
1994 01 16.27585 08 48 05.60 +21 25 57.2   691 – Steward Observatory, Kitt Peak-Spacewatch MPC 23044
1994 01 16.31180 08 48 03.59 +21 26 10.5 16.4 V 691 – Steward Observatory, Kitt Peak-Spacewatch MPC 23044
1994 01 16.34644 08 48 01.61 +21 26 23.4   691 – Steward Observatory, Kitt Peak-Spacewatch MPC 23044
1994 01 21.72535 08 42 59.03 +21 59 10.3 17   372 – Geisei MPC 23013
1994 01 21.73507 08 42 58.45 +21 59 14.2   372 – Geisei MPC 23013
1994 02 07.52257 08 26 16.31 +23 30 10.6 17   372 – Geisei MPC 23166
1994 02 07.53403 08 26 15.57 +23 30 12.8   372 – Geisei MPC 23166
1994 02 12.25920 08 22 05.11 +23 49 23.5 17.0   675 – Palomar Mountain MPC 23294
1994 02 12.29618 08 22 03.12 +23 49 32.1   675 – Palomar Mountain MPC 23294
1994 02 14.34270 08 20 24.53 +23 56 40.4 17.2   675 – Palomar Mountain MPC 23594
1994 02 14.38194 08 20 22.60 +23 56 47.3   675 – Palomar Mountain MPC 23594
1994 04 04.14947 08 24 46.51 +23 29 06.5   675 – Palomar Mountain MPC 23407
1994 04 04.19756 08 24 49.12 +23 28 53.4   675 – Palomar Mountain MPC 23407
1998 03 20.23406 13 05 23.09 -00 03 56.5   704 – Lincoln Laboratory ETS, New Mexico MPS 21864
1998 03 20.25415 13 05 22.12 -00 03 49.6   704 – Lincoln Laboratory ETS, New Mexico MPS 21864
1998 03 20.27440 13 05 21.11 -00 03 42.1   704 – Lincoln Laboratory ETS, New Mexico MPS 21864
1998 03 20.29447 13 05 20.13 -00 03 35.3   704 – Lincoln Laboratory ETS, New Mexico MPS 21864
1998 03 20.31491 13 05 19.12 -00 03 28.8   704 – Lincoln Laboratory ETS, New Mexico MPS 21864
1998 03 22.34558 13 03 42.43 +00 07 49.9   704 – Lincoln Laboratory ETS, New Mexico MPS 848
1998 03 22.35530 13 03 41.84 +00 07 54.7   704 – Lincoln Laboratory ETS, New Mexico MPS 848
1998 03 22.36513 13 03 41.34 +00 07 57.8   704 – Lincoln Laboratory ETS, New Mexico MPS 848
1998 03 22.37484 13 03 40.80 +00 07 59.2   704 – Lincoln Laboratory ETS, New Mexico MPS 848
1998 03 22.38447 13 03 40.21 +00 08 03.6   704 – Lincoln Laboratory ETS, New Mexico MPS 848
1998 03 22.393761 13 03 39.88 +00 08 07.3 16.2 R 699 – Lowell Observatory-LONEOS MPS 848
1998 03 22.403681 13 03 39.37 +00 08 10.8 16.5 R 699 – Lowell Observatory-LONEOS MPS 848
1998 03 22.413610 13 03 38.87 +00 08 14.7 16.1 R 699 – Lowell Observatory-LONEOS MPS 848
1998 03 25.32659 13 01 13.03 +00 24 32.0 17.3   704 – Lincoln Laboratory ETS, New Mexico MPS 848
1998 03 25.34658 13 01 11.92 +00 24 38.7   704 – Lincoln Laboratory ETS, New Mexico MPS 848
1998 03 25.36685 13 01 10.81 +00 24 44.9   704 – Lincoln Laboratory ETS, New Mexico MPS 848
1998 03 25.38714 13 01 09.73 +00 24 52.7   704 – Lincoln Laboratory ETS, New Mexico MPS 849
1998 03 25.40727 13 01 08.62 +00 24 58.6   704 – Lincoln Laboratory ETS, New Mexico MPS 849
1998 04 19.25051 12 39 46.64 +02 13 54.5 18.0   704 – Lincoln Laboratory ETS, New Mexico MPS 1161
1998 04 19.27213 12 39 45.72 +02 13 57.2   704 – Lincoln Laboratory ETS, New Mexico MPS 1161
1998 04 19.29371 12 39 44.74 +02 14 00.6 18.4   704 – Lincoln Laboratory ETS, New Mexico MPS 1161
1998 04 19.31512 12 39 43.72 +02 14 03.3 18.4   704 – Lincoln Laboratory ETS, New Mexico MPS 1161
1998 04 20.15273 12 39 08.42 +02 16 00.9 18.1   704 – Lincoln Laboratory ETS, New Mexico MPS 1161
1998 04 20.17300 12 39 07.49 +02 16 03.9   704 – Lincoln Laboratory ETS, New Mexico MPS 1161
1998 04 20.19316 12 39 06.61 +02 16 06.8   704 – Lincoln Laboratory ETS, New Mexico MPS 1161
1998 04 20.21406 12 39 05.68 +02 16 09.2   704 – Lincoln Laboratory ETS, New Mexico MPS 1161
1998 04 20.23412 12 39 04.68 +02 16 11.4   704 – Lincoln Laboratory ETS, New Mexico MPS 1161
1998 04 22.15240 12 37 47.00 +02 20 03.5   704 – Lincoln Laboratory ETS, New Mexico MPS 1161
1998 04 22.17123 12 37 46.19 +02 20 06.6   704 – Lincoln Laboratory ETS, New Mexico MPS 1161
1998 04 22.19000 12 37 45.43 +02 20 07.5   704 – Lincoln Laboratory ETS, New Mexico MPS 1161
1998 04 22.20892 12 37 44.66 +02 20 10.3   704 – Lincoln Laboratory ETS, New Mexico MPS 1161
1998 04 22.22769 12 37 43.79 +02 20 11.9 18.3   704 – Lincoln Laboratory ETS, New Mexico MPS 1161
1998 04 29.42721 12 33 40.74 +02 27 36.0 17.8 V 566 – Haleakala-NEAT/GEODSS MPS 1161
